Location: Sungai Apap
(2.6167°N, 113.3833°E)
Time: 14:48:59
(UTC+00:00)

NOSS 0 Rocket - Pass Details

Date: 25 May 2024
Orbit: 934 x 954 km, 70.0° (Epoch: 12 June)

Event Time Altitude Azimuth Distance (km) Brightness Sun altitude
Rises 21:36:03 0° 336° (NNW) 3,614 7.0 -10.1°
Reaches altitude 10° 21:38:36 10° 333° (NNW) 2,671 6.3 -9.5°
Maximum altitude 21:44:42 61° 254° (WSW) 1,077 4.0 -8.1°
Drops below altitude 10° 21:50:50 10° 175° (S) 2,677 6.1 -6.7°
Sets 21:53:24 0° 171° (S) 3,622 6.9 -6.1°
